This demonstration page uses our WeatherBlox Daily Observations layout. Learn more.

Left ArrowRight Arrow

34.16533, -84.80231

Hourly Observations for December 22, 2017

Temp ( °F °C ) Dew Point ( °F °C ) Humidity (%) Winds ( mph kmh ) Pressure ( in mb ) Visibility ( mi km ) Precip ( " mm )
12:53 am 00:53 Cloudy 52 11.1 52 11.1 100 100 VRB 3 6 30.13 1020 9 14 0.00 0.00
1:07 am 01:07 Cloudy 52 11.1 52 11.1 100 100 ESE 6 9 30.15 1021 7 11 0.00 0.00
1:53 am 01:53 Cloudy 52 11.1 52 11.1 100 100 VRB 3 6 30.13 1020 9 14 0.00 0.00
2:05 am 02:05 Cloudy 52 11.1 52 11.1 100 100 SE 3 6 30.15 1021 10 16 0.00 0.00
2:53 am 02:53 Cloudy 52 11.1 52 11.1 100 100 Calm 30.15 1021 10 16 0.00 0.00
3:53 am 03:53 Cloudy 52 11.1 52 11.1 100 100 ESE 3 6 30.15 1021 10 16 0.00 0.00
4:21 am 04:21 Cloudy 52 11.1 52 11.1 100 100 ESE 3 6 30.18 1022 10 16 0.00 0.00
4:31 am 04:31 Cloudy 52 11.1 52 11.1 100 100 Calm 30.18 1022 10 16 0.00 0.00
4:38 am 04:38 Cloudy 52 11.1 52 11.1 100 100 Calm 30.18 1022 10 16 0.00 0.00
4:53 am 04:53 Cloudy 52 11.1 52 11.1 100 100 ESE 3 6 30.17 1022 10 16 0.00 0.00
5:33 am 05:33 Cloudy 52 11.1 52 11.1 100 100 E 5 7 30.18 1022 10 16 0.00 0.00
5:53 am 05:53 Cloudy 52 11.1 52 11.1 100 100 ESE 7 11 30.16 1021 10 16 0.00 0.00
6:04 am 06:04 Cloudy 52 11.1 52 11.1 100 100 ESE 6 9 30.18 1022 10 16 0.00 0.00
6:53 am 06:53 Cloudy 52 11.1 52 11.1 100 100 VRB 3 6 30.17 1022 10 16 0.00 0.00
7:53 am 07:53 Cloudy 52 11.1 52 11.1 100 100 E 5 7 30.18 1022 10 16 0.00 0.00
8:53 am 08:53 Cloudy 52 11.1 52 11.1 100 100 SE 6 9 30.19 1023 10 16 0.00 0.00
9:53 am 09:53 Cloudy 53 11.7 52 11.1 96 96 SE 6 9 30.20 1023 10 16 0.00 0.00
10:41 am 10:41 Cloudy 54 12.2 52 11.1 93 93 SE 6 9 30.21 1023 10 16 0.00 0.00
10:53 am 10:53 Cloudy 54 12.2 52 11.1 93 93 SE 7 11 30.19 1023 10 16 0.00 0.00
11:53 am 11:53 Cloudy 55 12.8 52 11.1 90 90 SE 8 13 30.17 1022 10 16 0.00 0.00
12:53 pm 12:53 Cloudy 56 13.3 53 11.7 90 90 ESE 8 13 30.15 1021 10 16 0.00 0.00
1:53 pm 13:53 Cloudy 56 13.3 53 11.7 90 90 SE 5 7 30.13 1020 10 16 0.00 0.00
2:53 pm 14:53 Cloudy with Mist and Fog 55 12.8 54 12.2 96 96 ESE 6 9 30.12 1020 3 5 0.00 0.00
3:23 pm 15:23 Cloudy 55 12.8 54 12.2 96 96 ESE 8 13 30.15 1021 9 14 0.00 0.00
3:32 pm 15:32 Cloudy 55 12.8 55 12.8 100 100 VRB 6 9 30.15 1021 8 13 0.00 0.00
3:45 pm 15:45 Cloudy with Light Rain 55 12.8 55 12.8 100 100 ESE 5 7 30.15 1021 2 3 0.02 0.51
3:53 pm 15:53 Cloudy with Light Rain 55 12.8 55 12.8 100 100 E 5 7 30.12 1020 2 2 0.03 0.76
4:01 pm 16:01 Cloudy with Light Rain 55 12.8 55 12.8 100 100 E 3 6 30.15 1021 3 5 0.00 0.03
4:53 pm 16:53 Cloudy 54 12.2 54 12.2 100 100 E 5 7 30.12 1020 7 11 0.02 0.51
5:53 pm 17:53 Cloudy 55 12.8 55 12.8 100 100 E 3 6 30.11 1020 9 14 0.00 0.00
6:53 pm 18:53 Cloudy with Mist and Fog 54 12.2 54 12.2 100 100 Calm 30.12 1020 6 10 0.00 0.00
7:00 pm 19:00 Cloudy with Mist and Fog 54 12.2 54 12.2 100 100 VRB 6 9 30.15 1021 6 10 0.00 0.00
7:36 pm 19:36 Cloudy with Light Rain 54 12.2 54 12.2 100 100 VRB 3 6 30.15 1021 3 4 0.03 0.76
7:44 pm 19:44 Cloudy with Light Rain 54 12.2 54 12.2 100 100 VRB 3 6 30.15 1021 4 6 0.03 0.76
7:53 pm 19:53 Cloudy with Mist and Fog 54 12.2 54 12.2 100 100 E 5 7 30.12 1020 5 8 0.03 0.76
8:53 pm 20:53 Cloudy 55 12.8 55 12.8 100 100 ESE 5 7 30.10 1019 10 16 0.00 0.00
9:53 pm 21:53 Cloudy 56 13.3 56 13.3 100 100 VRB 3 6 30.09 1019 8 13 0.00 0.00
10:02 pm 22:02 Cloudy 56 13.3 56 13.3 100 100 Calm 30.12 1020 8 13 0.00 0.00
10:33 pm 22:33 Cloudy 57 13.9 57 13.9 100 100 SE 7 11 30.06 1018 8 13 0.00 0.00
10:53 pm 22:53 Mostly Cloudy 57 13.9 57 13.9 100 100 SE 9 15 30.08 1019 8 13 0.00 0.00
11:53 pm 23:53 Clear 57 13.9 57 13.9 100 100 SE 6 9 30.06 1018 10 16 0.00 0.00

Powered by AerisWeather